User: anonymous
Location: Goheenville
(40.9070°N, 79.3720°W)
Time: 06:12:19
(UTC-04:00)
Language:

Meteor 2-10 Rocket - Orbit

View from above orbital plane
View from above orbital plane
View from above satellite
View from above satellite

Ground track
Ground track

The orbit data is extracted from the following two-line orbital elements,

1 14453U 83109B   14246.02559470  .00000074  00000-0  24589-4 0  2252
2 14453 081.1658 050.4730 0106038 128.7331 010.6861 14.24509454602569
Epoch (UTC): 03 September 2014 00:36:51
Eccentricity: 0.0106038
inclination: 81.1658°
perigee height: 734 km
apogee height: 886 km
right ascension of ascending node: 50.4730°
argument of perigee: 128.7331°
revolutions per day: 14.24509454
mean anomaly at epoch: 10.6861°
orbit number at epoch: 60256

The dashed part of the orbit path shows where the satellite is in the earth's shadow,  

DLR